Flag for Germany Weather past 2 weeks in Meiningen, Thuringia, Germany

Now
55 °F

Drizzle. Partly sunny.


Feels Like: 54 °F
Forecast: 49 / 64 °F
Wind: 6 mph from Southwest

Location: Meiningen

Current Time: Apr 25, 2015 at 8:40:51 PM

Latest Report: Apr 25, 2015 at 8:00 PM


Visibility: 13 mi

Pressure: 29.80 "Hg

Humidity: 80%

Dew point: 49 °F

Location of MeiningenLocation

Historic Weather in Meiningen — Graph

°F

Meiningen temperature yesterday

Maximum temperature yesterday: 63 °F (at 6:00 PM)
Minimum temperature yesterday: 36 °F (at 6:00 AM)
Average temperature yesterday: 50 °F

Past Weeks' High & Low Weather Summary

 TemperatureHumidityPressure
High72 °F (Apr 15, 6:00 PM)95% (Apr 17, 3:00 AM)30.48 "Hg (Apr 17, 3:00 AM)
Low30 °F (Apr 19, 7:00 AM)22% (Apr 21, 7:00 PM)29.78 "Hg (Apr 25, 4:00 PM)
Average50 °F59%30.18 "Hg
* Reported Apr 10 7:00 PM — Apr 25 7:00 PM, Meiningen, Weather by CustomWeather, © 2015

Note: Actual official high and low records may vary slightly from our data, if they occured in-between our weather recording intervals... More about our weather records

Advertising

Meiningen weather history for previous 24 hours

 ConditionsComfort  
Time TempWeatherWind HumidityBarometerVisibility
7:00 PM
Sat, Apr 25
57 °FOvercast.8 mph66%29.79 "Hg22 mi
6:00 PM58 °FPartly sunny.5 mph66%29.79 "Hg25 mi
4:00 PM61 °FOvercast.5 mph54%29.78 "Hg31 mi
3:00 PM61 °FOvercast.6 mph50%29.79 "Hg25 mi
2:00 PM57 °FOvercast.6 mph51%29.82 "Hg12 mi
1:00 PM57 °FOvercast.6 mph49%29.83 "Hg10 mi
12:00 PM55 °FOvercast.6 mph48%29.83 "Hg12 mi
10:00 AM51 °FOvercast.3 mph56%29.86 "Hg16 mi
9:00 AM48 °FOvercast.2 mph61%29.87 "Hg16 mi
8:00 AM45 °FOvercast.3 mph64%29.89 "Hg16 mi
7:00 AM43 °FOvercast.2 mph70%29.89 "Hg17 mi
6:00 AM42 °FOvercast.2 mph72%29.90 "Hg17 mi
3:00 AM43 °FPassing clouds.2 mph70%29.91 "Hg17 mi
1:00 AM47 °FPassing clouds.3 mph63%29.92 "Hg19 mi
12:00 AM48 °FOvercast.3 mph61%29.92 "Hg19 mi
10:00 PM
Fri, Apr 24
54 °FOvercast.2 mph46%29.90 "Hg19 mi
9:00 PM58 °FOvercast.2 mph38%29.89 "Hg28 mi
8:00 PM61 °FPartly sunny.3 mph34%29.88 "Hg28 mi
Weather by CustomWeather, © 2015

See weather overviewHow to use our weather pages